User: anonymous   Login
Location: Terra Rouge Observatory
(46.0000°N, 62.7500°W)
Time: 17:46:56
(UTC-03:00)
Language:

NOSS 3-1 (A) - Orbit

View from above orbital plane
View from above orbital plane
View from above satellite
View from above satellite

Ground track
Ground track

The orbit data is extracted from the following two-line orbital elements,

1 26905U 01040A   17162.12152148 0.00000000  00000-0  00000-0 0    01
2 26905  63.4130  49.1511 0370000 358.1235   1.8765 13.40749657    02
Epoch (UTC): 11 June 2017 02:54:59
Eccentricity: 0.0370000
inclination: 63.4130°
perigee height: 829 km
apogee height: 1383 km
right ascension of ascending node: 49.1511°
argument of perigee: 358.1235°
revolutions per day: 13.40749657
mean anomaly at epoch: 1.8765°
orbit number at epoch: 0

The dashed part of the orbit path shows where the satellite is in the earth's shadow,  

DLR